FENGYUN 1C DEB

Satellite information

Favourite Embed

Satellite Type and Status

DEBRISIN ORBIT

Key statistics

Satellite FENGYUN 1C DEB at a glance.

Uptime

9555

Days in orbit

Revolutions

≈ 14.1

Per day

Orbit

SSO

Sun Synchronous Orbit

Inclination

98.7

Latest

Satellite identification and parameters

Extended collection of information and parameters for FENGYUN 1C DEB.

Object identification

Identified? True

Debris? True

Object name: FENGYUN 1C DEB

International designator: 1999-025DLA

Object number (NORAD): 35122

Object ID (CCSDS): 35122

Country: PEOPLES REPUBLIC OF CHINA (PRC)

Current information (Y/N): Y

RCS size: SMALL

Orbital parameters

Period: 101.846 minutes

Inclination: 98.6824 deg

SMA: 7224.187 km

Apoapsis: 863.032 km

Periapsis: 829.073 km

RAAN: 206.881 deg

Eccentricy: 0.0023504

Argument of periapsis: 264.36 deg

Mean anomaly: 95.4893 deg

Mean motion: 14.13901807 rev/day

Mean motion (dot): 0.00000333 rev/day2

B* drag term: 0.00019802 1/REarth

Two-line elements (TLE)

Creation date: July 3, 2025, 3:40 a.m.

Reference frame: TEME

Reference center: EARTH

Epoch: July 2, 2025, 6:39 p.m. UTC

TLE line 0: 0 FENGYUN 1C DEB

TLE line 1: 1 35122U 99025DLA 25183.77750168 .00000333 00000-0 19802-3 0 9990

TLE line 2: 2 35122 98.6824 206.8810 0023504 264.3600 95.4893 14.13901807615646

Live tracking on map

Real-time ground track for satellite FENGYUN 1C DEB.

In-orbit conjunctions

A list of the most updated potential collisions computed for object FENGYUN 1C DEB.

Target Orbit TCA Probability of collision Miss distance Type
METEOR 2-5 DEB LEO 2024-11-11 20:06:33 0.0001891454 828.0 (m) DEBRIS
COSMOS 1833 LEO 2024-11-03 04:39:18 0.0003591548 303.0 (m) PAYLOAD
SL-16 R/B LEO 2024-09-01 10:00:37 0.004130751 74.0 (m) ROCKET BODY

Associated space launch

Chinese polar orbiting meteorological satellite

FENGYUN 1C DEB was lifted into orbit during the mission ‘Long March 4B | Feng Yun 1C’, on board a Long March 4B space rocket.

The launch took place on May 10, 1999, 1:33 a.m. from Launch Complex 7.

For more information about the launch, click the button.

Launch to space Long March 4B | Feng Yun 1C
Long March 4B | Feng Yun 1C

Agency: N/A

Status: Launch Successful

Launch date: May 10, 1999, 1:33 a.m. UTC

Rocket: Long March 4B

Launch pad: Launch Complex 7

Location: Taiyuan Satellite Launch Center, People's Republic of China

...

Latest news about this satellite

There are no fresh news available about this satellite. Check back as we update our databases every day.


Newsletter sign-up

Weekly statistics, charts and insights to help you stay on top of the space industry.